Location: Unspecified
(49.2170°N, 0.0000°E)
Time: 18:57:21
(UTC+00:00)

A-11 Canister half - Pass Details

Date: 17 June 2019
Orbit: 1526 x 1683 km, 47.3° (Epoch: 19 August)

Event Time Altitude Azimuth Distance (km) Brightness Sun altitude
Rises 10:45:11 0° 284° (WNW) 4,681 11.3 60.2°
Reaches altitude 10° 10:48:15 10° 281° (W) 3,697 10.9 60.5°
Maximum altitude 10:57:20 61° 204° (SSW) 1,712 10.7 61.3°
Drops below altitude 10° 11:06:33 10° 127° (SE) 3,748 11.6 62.0°
Sets 11:09:41 0° 124° (SE) 4,749 11.9 62.3°
